Weather History for Port Isabel, TX

Change the Weather History Date:

Wednesday, January 1, 2014

  Actual Average Record
Temperature  
Mean Temperature 52 °F -  
Max Temperature 57 °F - - ()
Min Temperature 48 °F - - ()
Degree Days  
Heating Degree Days 12    
Growing Degree Days 2 (Base 50)    
Moisture  
Dew Point 50 °F    
Average Humidity 92    
Maximum Humidity 94    
Minimum Humidity 88    
Precipitation  
Precipitation 0.01 in - - ()
Sea Level Pressure  
Sea Level Pressure 30.10 in    
Wind  
Wind Speed 9 mph (NW)    
Max Wind Speed 12 mph    
Max Gust Speed -    
Visibility 4 miles    
Events Rain    
T = Trace of Precipitation, MM = Missing Value Source: NWS Daily Summary

Daily Weather History Graph

Daily Weather History Graph

Search for Another Location

Airport:

Trip Planner

Search our weather history database for the weather conditions in past years. The results will help you decide how hot, cold, wet, or windy it might be!

Date:

Astronomy

Jan. 01, 2014 Rise Set
Actual Time 7:16 AM CST 5:49 PM CST
Civil Twilight 6:51 AM CST 6:14 PM CST
Nautical Twilight 6:22 AM CST 6:43 PM CST
Astronomical Twilight 5:54 AM CST 7:11 PM CST
Moon 7:14 AM CST 6:28 PM CST
Length of Visible Light 11h 22m
Length of Day
10h 32m
New Moon, 0% of the Moon is Illuminated
Jan 1
New Moon
Jan 7
First Quarter
Jan 15
Full
Jan 23
Last Quarter
Jan 30
New

Hourly Weather History & Observations

Time (CST) Temp. Dew Point Humidity Pressure Visibility Wind Dir Wind Speed Gust Speed Precip Events Conditions
12:53 AM 48.0 °F 46.0 °F 93% 30.24 in 8.0 mi NW 8.1 mph - N/A   Overcast
1:53 AM 48.9 °F 46.0 °F 90% 30.22 in 8.0 mi NW 10.4 mph - 0.00 in   Overcast
2:53 AM 48.9 °F 46.0 °F 90% 30.19 in 7.0 mi NW 8.1 mph - N/A   Overcast
3:12 AM 48.2 °F 46.4 °F 93% 30.20 in 7.0 mi NW 10.4 mph - N/A   Overcast
3:53 AM 48.9 °F 46.0 °F 90% 30.19 in 7.0 mi WNW 9.2 mph - N/A   Overcast
4:16 AM 48.2 °F 46.4 °F 93% 30.17 in 6.0 mi NW 9.2 mph - N/A   Overcast
4:26 AM 48.2 °F 46.4 °F 93% 30.17 in 6.0 mi NW 10.4 mph - N/A   Overcast
4:53 AM 48.9 °F 46.0 °F 90% 30.17 in 6.0 mi NW 9.2 mph - N/A   Overcast
5:53 AM 48.9 °F 46.9 °F 93% 30.16 in 7.0 mi NW 10.4 mph - N/A   Overcast
6:29 AM 48.2 °F 46.4 °F 93% 30.16 in 5.0 mi NW 10.4 mph - N/A   Overcast
6:53 AM 50.0 °F 46.9 °F 89% 30.16 in 5.0 mi NW 10.4 mph - N/A   Overcast
7:11 AM 48.2 °F 46.4 °F 93% 30.16 in 4.0 mi NW 9.2 mph - 0.00 in Rain Light Rain
7:17 AM 48.2 °F 46.4 °F 93% 30.16 in 4.0 mi NW 9.2 mph - 0.00 in Rain Light Rain
7:53 AM 50.0 °F 46.9 °F 89% 30.15 in 4.0 mi North 6.9 mph - 0.00 in   Overcast
8:53 AM 50.0 °F 48.0 °F 93% 30.18 in 4.0 mi NNW 10.4 mph - N/A   Overcast
9:53 AM 50.0 °F 48.0 °F 93% 30.18 in 5.0 mi NNW 11.5 mph - N/A   Overcast
10:53 AM 51.1 °F 48.9 °F 92% 30.17 in 5.0 mi NW 10.4 mph - N/A   Overcast
11:53 AM 52.0 °F 48.9 °F 89% 30.14 in 4.0 mi NW 11.5 mph - 0.00 in   Overcast
12:31 PM 51.8 °F 48.2 °F 88% 30.12 in 3.0 mi NNW 10.4 mph - N/A   Overcast
12:53 PM 52.0 °F 48.9 °F 89% 30.10 in 3.0 mi NNW 9.2 mph - N/A   Overcast
1:53 PM 53.1 °F 51.1 °F 93% 30.06 in 4.0 mi NW 6.9 mph - 0.00 in Rain Light Rain
2:53 PM 54.0 °F 51.1 °F 90% 30.04 in 4.0 mi NW 9.2 mph - 0.00 in Rain Light Rain
3:53 PM 54.0 °F 52.0 °F 93% 30.02 in 3.0 mi NW 10.4 mph - 0.00 in Rain Light Rain
4:46 PM 55.4 °F 53.6 °F 94% 30.02 in 2.5 mi NW 10.4 mph - 0.00 in   Overcast
4:53 PM 55.0 °F 53.1 °F 93% 30.01 in 2.0 mi NW 11.5 mph - 0.00 in Rain Light Rain
5:12 PM 55.4 °F 53.6 °F 94% 30.01 in 3.0 mi NW 10.4 mph - 0.01 in Rain Light Rain
5:29 PM 55.4 °F 53.6 °F 94% 30.02 in 2.0 mi NW 9.2 mph - 0.01 in   Overcast
5:53 PM 55.0 °F 53.1 °F 93% 30.02 in 2.5 mi NW 11.5 mph - 0.01 in   Overcast
6:29 PM 55.4 °F 53.6 °F 94% 30.01 in 1.8 mi NNW 9.2 mph - N/A   Overcast
6:53 PM 55.0 °F 53.1 °F 93% 30.01 in 1.5 mi NNW 6.9 mph - N/A   Overcast
7:53 PM 55.0 °F 53.1 °F 93% 30.02 in 1.8 mi NNW 8.1 mph - N/A   Overcast
8:10 PM 55.4 °F 53.6 °F 94% 30.02 in 2.0 mi NW 9.2 mph - N/A   Overcast
8:27 PM 55.4 °F 53.6 °F 94% 30.02 in 1.5 mi NW 8.1 mph - N/A   Overcast
8:53 PM 55.9 °F 54.0 °F 93% 30.03 in 1.2 mi NW 6.9 mph - N/A   Overcast
9:38 PM 55.4 °F 53.6 °F 94% 30.03 in 2.0 mi NNW 6.9 mph - N/A   Overcast
9:53 PM 55.9 °F 54.0 °F 93% 30.03 in 2.0 mi NNW 8.1 mph - N/A   Overcast
10:01 PM 55.4 °F 53.6 °F 94% 30.03 in 1.8 mi NNW 8.1 mph - N/A   Overcast
10:53 PM 55.9 °F 54.0 °F 93% 30.04 in 1.8 mi NNW 4.6 mph - N/A   Overcast
11:21 PM 57.2 °F 55.4 °F 94% 30.03 in 2.0 mi NW 5.8 mph - N/A   Overcast
11:40 PM 57.2 °F 55.4 °F 94% 30.04 in 1.5 mi NW 6.9 mph - N/A   Overcast
11:53 PM 57.0 °F 55.0 °F 93% 30.04 in 1.0 mi NNW 9.2 mph - N/A   Mist